User: anonymous   Login
Location: Newark
(55.7167°N, 12.5667°E)
Time: 15:36:51
(UTC+00:00)
Language:

N. Korean satellite - Orbit

View from above orbital plane
View from above orbital plane
View from above satellite
View from above satellite

Ground track
Ground track

The orbit data is extracted from the following two-line orbital elements,

1 39026U 12072A   20019.45576172  .00000759  00000-0  29566-4 0  9994
2 39026  97.2174  20.7817 0039116  59.0352 301.4722 15.28288329394396
Epoch (UTC): 19 January 2020 10:56:17
Eccentricity: 0.0039116
inclination: 97.2174°
perigee height: 454 km
apogee height: 508 km
right ascension of ascending node: 20.7817°
argument of perigee: 59.0352°
revolutions per day: 15.28288329
mean anomaly at epoch: 301.4722°
orbit number at epoch: 39439

The dashed part of the orbit path shows where the satellite is in the earth's shadow,  

DLR